TimeCDT,TemperatureF,Dew PointF,Humidity,Sea Level PressureIn,VisibilityMPH,Wind Direction,Wind SpeedMPH,Gust SpeedMPH,PrecipitationIn,Events,Conditions,WindDirDegrees,DateUTC
12:15 AM,77.0,56.7,49,30.07,10.0,SSE,11.5,-,N/A,,Clear,160,2013-06-14 05:15:00
12:35 AM,76.3,56.8,51,30.07,10.0,SSE,11.5,-,N/A,,Clear,160,2013-06-14 05:35:00
12:55 AM,75.4,56.8,52,30.07,10.0,South,11.5,-,N/A,,Clear,170,2013-06-14 05:55:00
1:15 AM,73.6,56.7,55,30.07,10.0,South,9.2,-,N/A,,Clear,170,2013-06-14 06:15:00
1:35 AM,71.2,56.5,60,30.07,10.0,South,9.2,-,N/A,,Clear,170,2013-06-14 06:35:00
1:55 AM,71.1,56.5,60,30.07,10.0,South,9.2,-,N/A,,Clear,170,2013-06-14 06:55:00
2:15 AM,70.3,56.3,61,30.06,10.0,South,8.1,-,N/A,,Clear,180,2013-06-14 07:15:00
2:35 AM,69.1,56.1,63,30.06,10.0,South,9.2,-,N/A,,Clear,180,2013-06-14 07:35:00
2:55 AM,68.9,55.9,63,30.06,10.0,South,8.1,-,N/A,,Clear,180,2013-06-14 07:55:00
3:15 AM,69.6,55.9,62,30.05,10.0,South,9.2,-,N/A,,Clear,190,2013-06-14 08:15:00
3:35 AM,70.5,56.1,60,30.05,10.0,SSW,10.4,-,N/A,,Mostly Cloudy,200,2013-06-14 08:35:00
3:55 AM,70.7,56.8,61,30.05,10.0,SSW,13.8,-,N/A,,Overcast,200,2013-06-14 08:55:00
4:15 AM,70.7,57.4,63,30.05,10.0,SSW,12.7,-,N/A,,Overcast,210,2013-06-14 09:15:00
4:35 AM,70.9,58.1,64,30.04,10.0,SSW,11.5,-,N/A,,Overcast,210,2013-06-14 09:35:00
4:55 AM,69.8,58.1,66,30.04,10.0,SW,11.5,-,N/A,,Overcast,220,2013-06-14 09:55:00
5:15 AM,68.5,57.7,68,30.04,10.0,SW,8.1,-,N/A,,Overcast,230,2013-06-14 10:15:00
5:35 AM,68.7,58.1,69,30.04,10.0,SSW,10.4,-,N/A,,Mostly Cloudy,210,2013-06-14 10:35:00
5:55 AM,67.5,58.1,72,30.05,10.0,SW,10.4,-,N/A,,Mostly Cloudy,220,2013-06-14 10:55:00
6:15 AM,67.3,57.9,72,30.05,10.0,SW,8.1,-,N/A,,Scattered Clouds,220,2013-06-14 11:15:00
6:35 AM,66.2,57.7,74,30.05,10.0,SW,8.1,-,N/A,,Scattered Clouds,220,2013-06-14 11:35:00
6:55 AM,67.1,58.1,73,30.06,10.0,SW,6.9,-,N/A,,Scattered Clouds,220,2013-06-14 11:55:00
7:15 AM,68.0,58.5,71,30.06,10.0,SSW,8.1,-,N/A,,Scattered Clouds,210,2013-06-14 12:15:00
7:35 AM,69.6,59.2,69,30.06,10.0,South,5.8,-,N/A,,Clear,190,2013-06-14 12:35:00
7:55 AM,72.1,59.0,63,30.06,10.0,SSW,8.1,-,N/A,,Clear,200,2013-06-14 12:55:00
8:15 AM,73.6,58.8,60,30.06,10.0,SSW,10.4,-,N/A,,Clear,200,2013-06-14 13:15:00
8:35 AM,75.7,58.3,55,30.07,10.0,SW,10.4,-,N/A,,Clear,220,2013-06-14 13:35:00
8:55 AM,77.4,57.7,51,30.07,10.0,SSW,11.5,-,N/A,,Clear,210,2013-06-14 13:55:00
9:15 AM,78.8,56.8,47,30.06,10.0,SSW,12.7,-,N/A,,Clear,210,2013-06-14 14:15:00
9:35 AM,80.6,56.5,43,30.07,10.0,SSW,13.8,-,N/A,,Clear,210,2013-06-14 14:35:00
9:55 AM,81.0,54.5,40,30.07,10.0,South,16.1,-,N/A,,Clear,190,2013-06-14 14:55:00
10:15 AM,81.7,55.6,41,30.07,10.0,South,18.4,-,N/A,,Clear,180,2013-06-14 15:15:00
10:35 AM,83.3,55.0,38,30.06,10.0,South,18.4,-,N/A,,Clear,190,2013-06-14 15:35:00
10:55 AM,83.1,55.8,39,30.06,10.0,SSE,18.4,21.9,N/A,,Clear,160,2013-06-14 15:55:00
11:15 AM,83.7,55.9,39,30.06,10.0,South,17.3,-,N/A,,Clear,190,2013-06-14 16:15:00
11:35 AM,84.0,55.2,37,30.06,10.0,South,21.9,26.5,N/A,,Clear,190,2013-06-14 16:35:00
11:55 AM,86.0,55.9,36,30.05,10.0,South,19.6,27.6,N/A,,Clear,180,2013-06-14 16:55:00
12:15 PM,87.1,55.6,34,30.06,10.0,SSW,24.2,31.1,N/A,,Clear,210,2013-06-14 17:15:00
12:35 PM,87.1,55.4,34,30.05,10.0,SSW,21.9,29.9,N/A,,Clear,200,2013-06-14 17:35:00
12:55 PM,88.5,54.9,32,30.04,10.0,South,20.7,33.4,N/A,,Clear,170,2013-06-14 17:55:00
1:15 PM,88.0,52.0,29,30.05,10.0,SSW,24.2,33.4,N/A,,Clear,200,2013-06-14 18:15:00
1:35 PM,87.8,55.4,33,30.04,10.0,South,24.2,29.9,N/A,,Clear,170,2013-06-14 18:35:00
1:55 PM,90.0,53.6,29,30.04,10.0,South,23.0,33.4,N/A,,Clear,190,2013-06-14 18:55:00
2:15 PM,88.9,50.7,27,30.03,10.0,South,24.2,32.2,N/A,,Clear,180,2013-06-14 19:15:00
2:35 PM,88.7,49.1,25,30.02,10.0,South,25.3,33.4,N/A,,Clear,170,2013-06-14 19:35:00
2:55 PM,89.6,47.8,24,30.02,10.0,South,24.2,33.4,N/A,,Clear,180,2013-06-14 19:55:00
3:15 PM,91.6,43.5,19,30.00,10.0,South,24.2,31.1,N/A,,Clear,180,2013-06-14 20:15:00
3:35 PM,92.3,43.9,19,29.99,10.0,South,21.9,32.2,N/A,,Clear,180,2013-06-14 20:35:00
3:55 PM,90.5,45.9,21,29.99,10.0,South,25.3,29.9,N/A,,Clear,180,2013-06-14 20:55:00
4:15 PM,88.7,42.4,20,29.98,10.0,South,19.6,29.9,N/A,,Clear,180,2013-06-14 21:15:00
4:35 PM,90.0,39.4,17,29.98,10.0,South,19.6,33.4,N/A,,Clear,170,2013-06-14 21:35:00
4:55 PM,87.6,51.3,29,29.98,10.0,South,29.9,38.0,N/A,,Clear,170,2013-06-14 21:55:00
5:15 PM,88.9,48.2,25,29.98,10.0,South,21.9,33.4,N/A,,Clear,180,2013-06-14 22:15:00
5:35 PM,85.3,45.1,25,29.97,10.0,SSE,26.5,29.9,N/A,,Clear,160,2013-06-14 22:35:00
5:55 PM,84.4,48.4,29,29.97,10.0,South,21.9,31.1,N/A,,Clear,170,2013-06-14 22:55:00
6:15 PM,83.3,47.5,29,29.98,10.0,SSE,16.1,27.6,N/A,,Clear,150,2013-06-14 23:15:00
6:35 PM,82.4,50.0,32,29.98,10.0,SSE,18.4,-,N/A,,Clear,150,2013-06-14 23:35:00
6:55 PM,81.5,51.6,35,29.99,10.0,SSE,19.6,25.3,N/A,,Clear,150,2013-06-14 23:55:00
7:15 PM,80.8,52.5,37,30.00,10.0,SSE,17.3,24.2,N/A,,Scattered Clouds,160,2013-06-15 00:15:00
7:35 PM,79.7,54.0,41,30.01,10.0,South,18.4,-,N/A,,Scattered Clouds,170,2013-06-15 00:35:00
7:55 PM,78.6,51.4,39,30.01,10.0,SSE,17.3,-,N/A,,Scattered Clouds,160,2013-06-15 00:55:00
8:15 PM,77.9,50.9,39,30.01,10.0,SSE,18.4,21.9,N/A,,Clear,160,2013-06-15 01:15:00
8:35 PM,77.0,50.7,40,30.02,10.0,SSE,15.0,19.6,N/A,,Clear,160,2013-06-15 01:35:00
8:55 PM,76.1,54.1,46,30.02,10.0,South,15.0,20.7,N/A,,Clear,170,2013-06-15 01:55:00
9:15 PM,75.4,55.0,49,30.02,10.0,South,12.7,-,N/A,,Clear,170,2013-06-15 02:15:00
9:35 PM,74.1,55.9,53,30.02,10.0,South,16.1,-,N/A,,Scattered Clouds,170,2013-06-15 02:35:00
9:55 PM,72.7,57.7,59,30.02,10.0,South,19.6,23.0,N/A,,Clear,170,2013-06-15 02:55:00
10:15 PM,71.6,60.8,69,30.03,10.0,South,18.4,23.0,N/A,,Clear,170,2013-06-15 03:15:00
10:35 PM,69.6,61.7,76,30.03,10.0,SSE,18.4,-,N/A,,Clear,160,2013-06-15 03:35:00
10:55 PM,67.5,62.8,85,30.02,10.0,SSE,19.6,-,N/A,,Clear,160,2013-06-15 03:55:00
11:15 PM,66.7,61.7,84,30.00,10.0,SSE,21.9,26.5,N/A,,Clear,150,2013-06-15 04:15:00
11:35 PM,66.4,61.3,84,30.01,10.0,SSE,19.6,25.3,N/A,,Clear,150,2013-06-15 04:35:00
11:55 PM,66.2,61.7,85,30.01,10.0,SSE,17.3,23.0,N/A,,Clear,150,2013-06-15 04:55:00